Wind_Speed
5 5 6 6 5 4 4 4 4 4 4 3 3 3 3 4 4 5 5 6 6 6 6 7 7 8 8 9 9 8 8 7 7 7 6 5 5 5 6 7 8 9 9
5 6 7 6 5 4 3 3 3 3 2 1 2 2 3 4 4 5 6 6 6 6 6 7 7 7 8 8 8 7 6 6 6 6 5 5 5 5 5 7 7 8 8
6 6 7 6 5 4 3 3 2 1 0 1 2 3 4 5 5 6 7 7 7 7 7 7 7 7 7 7 7 6 5 5 5 4 4 4 4 4 4 6 7 7 8
6 7 8 7 6 4 4 3 2 2 2 2 3 4 5 6 7 7 8 8 8 8 8 8 8 7 7 6 6 5 4 4 4 3 3 3 3 3 4 5 6 7 8
8 8 8 7 5 4 4 3 3 3 4 4 5 6 6 7 8 9 10 10 9 9 9 9 8 8 8 7 6 4 4 3 3 2 1 1 1 2 3 4 6 7 8
9 9 8 7 5 5 4 4 4 4 5 5 6 7 8 9 10 11 11 12 12 11 11 10 10 10 9 8 7 5 4 4 3 3 2 1 1 2 3 4 5 7 7
11 10 8 6 5 5 4 4 5 6 7 7 8 9 10 11 12 13 13 13 13 13 13 13 12 11 10 10 9 7 6 5 4 4 3 3 3 3 4 5 6 6 7
11 10 8 6 5 5 5 6 6 7 8 10 11 12 12 14 14 15 15 15 15 15 15 14 14 13 12 11 10 9 8 7 6 5 4 4 5 5 5 6 6 7 8
11 9 7 6 6 6 7 7 8 9 10 11 12 13 14 14 15 16 16 17 17 17 16 16 16 15 14 13 12 11 10 9 8 7 6 6 6 6 7 7 8 8 9
11 9 7 7 7 7 8 9 10 11 11 12 13 14 14 15 15 16 17 17 17 17 17 17 17 16 15 14 14 13 12 11 10 9 8 8 8 8 8 9 10 10 10
12 10 8 8 7 8 9 9 10 11 12 13 14 14 14 15 15 16 16 16 16 16 17 18 18 18 17 16 15 14 14 13 12 10 10 10 9 9 10 11 12 12 12
13 10 9 8 8 8 9 10 11 12 12 13 13 13 13 13 14 14 15 15 16 16 16 17 18 18 17 16 15 14 14 14 13 12 12 11 11 11 11 12 13 14 15
14 11 10 9 8 8 9 10 11 11 12 12 12 12 13 13 14 14 15 15 15 15 16 16 17 17 17 16 15 15 14 15 15 14 14 14 14 13 13 14 15 15 16
14 12 11 9 7 8 9 9 10 11 11 11 12 12 13 13 13 14 14 14 14 14 15 15 16 16 16 16 15 15 15 15 16 16 16 15 16 15 15 16 17 17 17
14 11 9 6 6 6 7 7 8 9 9 10 11 11 11 12 12 13 13 13 13 13 14 14 14 14 15 15 15 15 15 15 15 16 16 16 16 17 16 17 18 20 19
13 10 8 6 5 5 5 6 7 7 8 9 10 10 10 11 11 12 12 12 12 12 12 13 13 13 13 14 14 14 14 15 15 15 16 17 17 17 17 17 18 19 20
12 10 8 6 5 5 4 5 6 7 7 8 8 9 9 10 10 11 11 11 11 11 11 11 11 12 12 13 13 13 13 14 14 15 16 17 17 17 18 18 18 20 21
11 10 8 7 5 5 4 5 5 6 6 7 7 8 8 9 9 10 11 11 11 11 11 11 11 11 11 12 12 13 13 14 14 14 15 17 17 18 18 19 19 19 20
11 10 9 7 6 5 5 5 5 5 5 6 6 7 8 9 9 10 10 10 10 10 11 11 11 11 11 12 12 12 13 14 14 14 15 16 17 18 19 19 20 20 20
12 11 10 8 7 6 5 4 3 3 4 5 6 7 8 9 9 9 9 9 9 9 10 10 11 11 12 12 12 12 13 13 14 15 15 16 17 18 19 20 21 21 22
13 11 10 8 7 6 4 3 2 3 4 5 6 7 7 7 8 8 8 9 9 10 10 10 11 12 12 13 13 13 13 13 14 14 15 16 17 18 19 20 21 22 23
13 12 10 9 8 6 4 3 2 2 3 4 6 6 7 7 8 8 9 9 10 10 10 11 11 12 12 13 13 13 13 14 14 15 15 16 17 18 19 20 22 23 24
14 12 9 9 7 6 4 3 2 1 2 4 4 5 6 6 7 8 8 9 10 11 11 12 12 13 13 14 14 14 15 15 15 15 16 17 17 18 19 20 22 23 25
12 11 10 10 8 6 5 4 3 2 2 3 3 4 5 6 7 7 8 9 11 12 12 13 13 13 14 14 15 16 16 16 17 17 17 18 18 19 20 21 22 24 25
10 10 11 10 8 6 5 5 3 2 2 3 3 4 5 5 6 8 9 10 11 12 13 14 14 15 15 16 16 17 18 18 19 19 20 20 20 21 22 23 23 24 26
9 9 10 9 8 7 6 5 4 3 3 3 4 4 5 6 7 8 9 11 12 13 14 15 16 16 17 17 18 18 19 19 20 21 22 22 23 23 24 25 26 27 27
Wind_Direction
219 221 223 213 198 181 158 135 123 113 101 84 62 42 29 20 16 12 7 4 4 4 5 6 8 8 10 13 16 17 22 28 36 42 47 63 78 94 104 116 127 127 128
229 230 230 226 214 193 173 156 143 128 103 63 24 5 355 346 344 345 343 342 341 342 343 347 352 356 359 2 5 7 10 16 27 41 50 63 79 89 106 125 132 131 132
232 236 236 230 221 212 200 187 176 165 163 317 320 320 320 318 318 321 323 325 326 329 332 332 335 338 343 347 352 358 360 3 15 36 51 62 84 97 116 136 141 141 141
232 237 234 229 227 224 218 214 218 237 262 285 296 303 307 307 307 309 313 316 319 322 323 324 325 326 328 332 337 344 348 351 1 17 45 69 97 116 126 146 149 152 151
229 234 231 227 229 231 234 238 250 264 274 282 290 296 301 303 304 306 308 310 311 313 314 314 315 316 317 318 321 325 330 331 338 345 7 81 130 148 150 158 159 161 161
225 230 228 223 228 237 247 258 265 273 281 287 293 297 299 300 302 303 304 305 305 305 307 306 305 305 305 305 304 301 303 307 307 305 296 261 210 186 177 175 173 172 172
225 228 223 223 228 238 252 267 277 281 283 288 291 294 297 297 298 299 300 300 299 297 298 299 300 300 299 297 294 290 288 288 291 288 279 262 244 221 202 196 191 188 185
223 222 219 223 233 250 265 275 279 282 284 288 291 294 296 296 296 296 297 297 295 293 293 292 293 296 295 292 289 287 282 280 279 276 269 261 253 243 227 215 209 202 197
216 218 223 230 241 255 266 274 281 285 288 291 294 295 296 296 296 295 295 295 293 290 289 289 290 291 289 286 283 283 280 276 273 272 266 263 257 251 240 227 220 213 207
214 220 227 239 250 262 272 279 285 290 292 293 294 295 295 296 296 296 294 294 291 289 286 285 286 285 284 282 278 275 273 270 268 268 266 264 260 255 245 236 228 221 215
217 221 230 243 257 269 279 284 286 288 292 294 296 296 296 298 298 297 294 294 291 290 287 284 284 283 282 280 278 272 267 266 264 263 262 260 259 255 251 242 234 227 223
215 225 237 247 261 272 280 285 287 291 295 296 297 296 298 299 299 298 296 295 293 291 289 288 285 282 281 279 277 272 267 261 257 257 259 259 258 256 254 248 240 230 226
216 226 234 243 259 271 277 283 287 291 294 296 296 296 296 298 298 299 300 298 295 292 290 289 286 281 279 278 276 271 266 262 255 256 257 260 259 257 255 250 243 235 228
217 221 226 233 251 262 270 280 287 291 293 295 296 298 300 302 302 303 303 301 296 294 291 290 289 285 283 279 278 274 267 264 258 257 260 261 260 258 256 253 248 241 233
215 214 213 225 241 256 268 280 288 293 295 296 298 301 303 304 304 305 305 302 299 296 294 291 290 288 285 281 280 276 270 265 261 258 259 261 260 260 259 256 251 246 237
210 209 206 211 229 247 265 285 291 295 299 302 303 305 306 305 305 307 309 308 307 304 302 298 296 291 287 287 285 281 275 270 264 261 259 261 261 259 259 255 250 246 241
205 206 204 212 223 238 258 278 284 294 300 303 306 308 310 311 313 316 316 315 313 312 311 306 302 298 292 286 285 284 280 273 268 265 261 260 259 257 255 253 252 247 243
206 203 202 207 220 235 244 264 280 292 299 305 310 314 318 320 321 320 318 316 314 313 312 311 308 302 298 292 287 285 282 277 274 270 265 260 258 257 255 254 251 248 245
205 205 195 200 217 227 236 253 268 287 302 314 320 324 326 326 325 324 321 319 315 312 310 310 309 304 301 298 293 288 285 280 276 272 268 263 261 258 257 255 251 250 246
202 195 190 194 209 214 221 235 264 290 311 324 329 330 329 330 330 328 325 324 320 318 316 313 310 308 305 303 300 294 289 285 279 274 271 266 263 260 258 256 254 252 249
187 191 186 188 198 201 202 218 254 288 312 324 329 330 332 335 335 334 333 331 329 327 325 323 319 315 311 308 305 301 294 289 285 279 275 269 266 262 259 256 255 255 251
190 187 182 189 191 186 185 204 241 284 312 322 327 332 341 343 342 342 343 343 340 337 333 329 325 320 317 313 309 306 302 296 290 285 279 274 269 267 263 260 256 255 253
188 188 189 189 183 180 180 190 215 262 310 324 331 339 346 348 350 353 354 353 350 346 343 339 335 328 321 317 313 309 305 301 296 290 285 279 274 269 266 263 259 256 254
188 191 193 183 182 184 188 198 213 247 302 320 330 341 351 357 360 1 358 355 352 350 349 346 340 335 329 323 317 312 307 302 298 293 288 283 279 274 269 265 262 259 257
186 186 185 184 185 192 199 207 215 244 284 305 325 342 354 360 1 360 358 355 352 350 348 346 342 337 331 325 320 314 309 304 299 295 290 285 280 277 273 269 265 262 259
187 188 189 191 193 203 211 216 228 249 272 296 317 332 344 348 348 348 348 348 348 347 345 343 341 338 332 327 321 315 310 305 301 297 292 287 282 278 274 270 267 264 262
Height
5894 5895 5895 5895 5895 5895 5895 5895 5895 5896 5897 5897 5898 5898 5899 5899 5899 5899 5899 5899 5898 5898 5898 5898 5898 5897 5897 5897 5896 5896 5895 5895 5895 5894 5894 5894 5894 5894 5894 5895 5896 5896 5897
5894 5894 5895 5895 5895 5894 5894 5894 5895 5895 5896 5897 5897 5897 5898 5898 5898 5898 5898 5898 5898 5898 5898 5897 5897 5897 5897 5897 5896 5896 5895 5895 5895 5895 5894 5894 5894 5895 5895 5896 5897 5897 5898
5893 5894 5894 5894 5894 5894 5894 5894 5894 5895 5895 5896 5896 5896 5897 5897 5897 5897 5897 5897 5897 5897 5897 5897 5896 5896 5896 5896 5896 5896 5895 5895 5895 5895 5895 5895 5895 5895 5896 5896 5897 5898 5899
5892 5893 5893 5893 5893 5893 5893 5894 5894 5894 5895 5895 5895 5895 5895 5895 5896 5896 5896 5896 5896 5896 5896 5896 5896 5896 5895 5895 5895 5895 5895 5895 5895 5895 5895 5895 5895 5896 5896 5897 5898 5898 5899
5891 5892 5892 5892 5892 5893 5893 5893 5893 5894 5894 5894 5894 5894 5894 5894 5894 5895 5894 5894 5894 5894 5894 5894 5894 5894 5894 5894 5894 5894 5894 5894 5894 5895 5895 5895 5896 5896 5896 5897 5898 5898 5899
5889 5890 5891 5891 5892 5892 5892 5893 5893 5893 5893 5893 5893 5893 5893 5893 5893 5893 5893 5893 5892 5892 5892 5893 5893 5893 5893 5893 5893 5893 5893 5894 5894 5894 5895 5895 5896 5896 5897 5897 5898 5899 5899
5888 5889 5889 5890 5890 5891 5891 5891 5892 5892 5892 5892 5892 5892 5892 5892 5891 5891 5891 5890 5890 5890 5890 5890 5891 5891 5891 5891 5891 5892 5892 5892 5893 5893 5894 5894 5895 5896 5896 5897 5898 5899 5900
5887 5887 5888 5889 5889 5890 5890 5890 5891 5891 5891 5891 5891 5891 5890 5890 5890 5889 5888 5888 5888 5888 5888 5888 5888 5889 5889 5889 5889 5890 5890 5891 5891 5892 5892 5893 5894 5895 5895 5896 5897 5898 5899
5885 5886 5887 5887 5888 5888 5888 5889 5889 5889 5889 5889 5889 5889 5888 5888 5887 5887 5886 5886 5885 5885 5885 5885 5885 5886 5886 5886 5887 5887 5888 5889 5889 5890 5891 5891 5892 5893 5894 5895 5896 5897 5898
5883 5884 5885 5885 5886 5886 5886 5887 5887 5887 5887 5887 5886 5886 5886 5885 5885 5884 5883 5883 5882 5882 5882 5882 5882 5882 5883 5883 5884 5885 5885 5886 5887 5888 5889 5889 5890 5891 5892 5893 5895 5896 5897
5881 5882 5882 5883 5884 5884 5885 5885 5885 5884 5884 5884 5884 5884 5884 5883 5882 5882 5881 5880 5880 5879 5879 5879 5879 5879 5879 5880 5881 5881 5882 5883 5884 5885 5886 5887 5888 5889 5890 5891 5893 5894 5896
5878 5879 5880 5881 5881 5882 5882 5882 5882 5882 5882 5882 5881 5881 5881 5881 5880 5879 5878 5878 5877 5877 5876 5876 5875 5875 5876 5877 5878 5878 5879 5880 5881 5882 5883 5884 5885 5886 5887 5889 5890 5892 5894
5875 5876 5878 5878 5879 5879 5879 5879 5879 5880 5880 5880 5879 5879 5879 5878 5878 5877 5876 5875 5875 5874 5873 5873 5872 5872 5872 5873 5874 5875 5876 5877 5878 5879 5880 5881 5882 5884 5885 5886 5887 5889 5891
5873 5874 5875 5875 5876 5876 5877 5877 5877 5877 5878 5877 5877 5877 5876 5876 5875 5874 5873 5873 5872 5871 5871 5870 5870 5869 5869 5870 5871 5872 5872 5873 5874 5876 5877 5878 5879 5880 5881 5882 5884 5885 5887
5870 5871 5872 5873 5873 5874 5874 5875 5875 5875 5875 5875 5875 5875 5874 5874 5873 5872 5871 5870 5870 5869 5868 5867 5867 5867 5867 5867 5868 5868 5869 5870 5871 5872 5873 5874 5875 5876 5877 5878 5880 5881 5884
5867 5869 5870 5870 5871 5872 5872 5873 5873 5873 5873 5873 5873 5873 5872 5872 5871 5870 5869 5868 5867 5866 5866 5865 5864 5864 5864 5865 5865 5865 5866 5867 5867 5868 5869 5870 5871 5872 5873 5875 5876 5877 5879
5864 5866 5867 5868 5869 5870 5871 5871 5871 5872 5872 5872 5872 5871 5870 5870 5869 5868 5867 5866 5865 5864 5864 5863 5862 5862 5862 5862 5862 5862 5863 5863 5864 5864 5865 5866 5867 5868 5869 5871 5872 5873 5875
5861 5863 5865 5867 5868 5869 5870 5870 5870 5871 5871 5871 5870 5870 5869 5868 5867 5866 5866 5865 5863 5863 5862 5861 5861 5860 5860 5860 5859 5860 5860 5860 5860 5861 5861 5862 5863 5864 5866 5867 5868 5869 5871
5858 5861 5863 5865 5867 5868 5869 5869 5869 5869 5869 5869 5869 5868 5867 5867 5866 5865 5864 5863 5862 5861 5860 5860 5859 5858 5858 5857 5857 5857 5857 5857 5857 5858 5858 5859 5859 5860 5862 5863 5864 5865 5867
5855 5858 5862 5864 5866 5867 5867 5868 5868 5868 5868 5868 5867 5867 5866 5866 5865 5864 5863 5862 5861 5860 5859 5858 5857 5856 5856 5855 5855 5855 5854 5854 5854 5855 5855 5855 5856 5856 5857 5859 5860 5861 5863
5854 5857 5860 5862 5864 5865 5866 5866 5866 5867 5867 5867 5866 5866 5865 5865 5864 5863 5862 5861 5860 5859 5858 5856 5855 5854 5854 5853 5852 5852 5852 5851 5851 5851 5851 5852 5852 5853 5853 5854 5856 5857 5858
5852 5856 5858 5861 5862 5863 5864 5865 5865 5865 5866 5866 5865 5865 5864 5864 5863 5862 5861 5860 5859 5857 5856 5855 5854 5853 5852 5851 5850 5849 5849 5849 5848 5848 5848 5848 5848 5848 5849 5850 5851 5852 5853
5851 5854 5857 5860 5861 5862 5863 5864 5864 5864 5865 5865 5865 5864 5863 5863 5862 5861 5860 5859 5857 5856 5855 5853 5852 5851 5849 5848 5847 5847 5846 5845 5844 5844 5844 5843 5844 5844 5844 5845 5846 5846 5848
5850 5853 5856 5858 5860 5861 5862 5863 5863 5864 5864 5864 5864 5863 5863 5862 5861 5860 5859 5858 5856 5855 5853 5852 5850 5849 5847 5846 5844 5843 5842 5841 5841 5840 5840 5839 5839 5839 5839 5840 5840 5841 5842
5849 5852 5854 5856 5858 5860 5861 5861 5862 5862 5863 5863 5862 5862 5861 5861 5860 5859 5858 5856 5855 5853 5852 5850 5848 5847 5845 5843 5841 5840 5838 5837 5836 5835 5835 5834 5834 5834 5834 5834 5834 5835 5836
5849 5852 5853 5854 5856 5858 5859 5860 5861 5861 5861 5861 5861 5860 5860 5859 5858 5857 5856 5855 5853 5852 5850 5848 5846 5844 5842 5840 5838 5836 5835 5833 5832 5830 5829 5828 5828 5828 5827 5827 5828 5828 5829